• In Russia
  • List of Countries
  • For 7 days
  • Water Temperature
  • Weather Map
  • Weather Widgets
  • user-avatar
    Login

    Hourly Weather Konstantyna

    Today, 20 January, Monday

    Time Temperature Precipitation Wind Pressure Humidity
    00:00 +6°C° 0 mm 2 mps 708 mmHg 77%
    01:00 +6°C° 0 mm 2 mps 708 mmHg 78%
    02:00 +6°C° 0 mm 2 mps 708 mmHg 78%
    03:00 +6°C° 0 mm 1 mps 708 mmHg 78%
    04:00 +6°C° 0 mm 1 mps 708 mmHg 78%
    05:00 +7°C° 0 mm 1 mps 708 mmHg 78%
    06:00 +7°C° 0 mm 1 mps 708 mmHg 78%
    07:00 +8°C° 0 mm 1 mps 709 mmHg 75%
    08:00 +7°C° 0 mm 2 mps 709 mmHg 71%
    09:00 +8°C° 0 mm 2 mps 710 mmHg 67%
    10:00 +10°C° 0 mm 3 mps 710 mmHg 60%
    11:00 +11°C° 0 mm 3 mps 710 mmHg 53%
    12:00 +13°C° 0 mm 4 mps 709 mmHg 46%
    13:00 +13°C° 0 mm 4 mps 709 mmHg 46%
    14:00 +14°C° 0 mm 5 mps 709 mmHg 46%
    15:00 +14°C° 0 mm 5 mps 708 mmHg 45%
    16:00 +13°C° 0 mm 6 mps 708 mmHg 47%
    17:00 +10°C° 0 mm 6 mps 708 mmHg 49%
    18:00 +9°C° 0 mm 7 mps 708 mmHg 51%
    19:00 +8°C° 0 mm 7 mps 709 mmHg 53%
    20:00 +7°C° 0 mm 8 mps 709 mmHg 54%
    21:00 +7°C° 0 mm 9 mps 709 mmHg 56%
    22:00 +7°C° 0 mm 9 mps 709 mmHg 57%
    23:00 +7°C° 0 mm 8 mps 709 mmHg 58%

    Tomorrow, 21 January, Tuesday

    Time Temperature Precipitation Wind Pressure Humidity
    00:00 +7°C° 0 mm 8 mps 709 mmHg 59%
    01:00 +7°C° 0 mm 8 mps 709 mmHg 60%
    02:00 +6°C° 0 mm 8 mps 709 mmHg 61%
    03:00 +6°C° 0 mm 7 mps 708 mmHg 62%
    04:00 +6°C° 0 mm 7 mps 708 mmHg 63%
    05:00 +6°C° 0 mm 8 mps 708 mmHg 64%
    06:00 +5°C° 0 mm 8 mps 708 mmHg 65%
    07:00 +7°C° 0 mm 9 mps 709 mmHg 62%
    08:00 +8°C° 0 mm 10 mps 709 mmHg 59%
    09:00 +9°C° 0 mm 12 mps 709 mmHg 57%
    10:00 +12°C° 0 mm 12 mps 709 mmHg 50%
    11:00 +13°C° 0 mm 12 mps 710 mmHg 43%
    12:00 +15°C° 0 mm 12 mps 710 mmHg 37%
    13:00 +16°C° 0 mm 11 mps 709 mmHg 37%
    14:00 +16°C° 0 mm 10 mps 709 mmHg 36%
    15:00 +16°C° 0 mm 9 mps 709 mmHg 36%
    16:00 +15°C° 0 mm 8 mps 709 mmHg 41%
    17:00 +12°C° 0 mm 7 mps 710 mmHg 45%
    18:00 +10°C° 0 mm 7 mps 710 mmHg 49%
    19:00 +9°C° 0 mm 6 mps 710 mmHg 52%
    20:00 +9°C° 0 mm 6 mps 710 mmHg 56%
    21:00 +8°C° 0 mm 5 mps 711 mmHg 59%
    22:00 +8°C° 0 mm 6 mps 711 mmHg 60%
    23:00 +8°C° 0 mm 6 mps 711 mmHg 62%

    Day after tomorrow, 22 January, Wednesday

    Time Temperature Precipitation Wind Pressure Humidity
    00:00 +8°C° 0 mm 6 mps 711 mmHg 64%
    01:00 +8°C° 0 mm 6 mps 711 mmHg 63%
    02:00 +8°C° 0 mm 6 mps 710 mmHg 63%
    03:00 +8°C° 0 mm 7 mps 710 mmHg 63%
    04:00 +8°C° 0 mm 7 mps 710 mmHg 61%
    05:00 +8°C° 0 mm 7 mps 710 mmHg 59%
    06:00 +8°C° 0 mm 7 mps 710 mmHg 57%
    07:00 +9°C° 0 mm 7 mps 711 mmHg 54%
    08:00 +11°C° 0 mm 7 mps 711 mmHg 50%
    09:00 +12°C° 0 mm 8 mps 712 mmHg 46%
    10:00 +15°C° 0 mm 9 mps 712 mmHg 42%
    11:00 +17°C° 0 mm 9 mps 712 mmHg 37%
    12:00 +19°C° 0 mm 10 mps 712 mmHg 33%
    13:00 +18°C° 0 mm 10 mps 711 mmHg 35%
    14:00 +18°C° 0 mm 9 mps 711 mmHg 37%
    15:00 +18°C° 0 mm 9 mps 711 mmHg 39%
    16:00 +16°C° 0 mm 8 mps 711 mmHg 44%
    17:00 +13°C° 0 mm 8 mps 711 mmHg 49%
    18:00 +12°C° 0 mm 8 mps 711 mmHg 54%
    19:00 +11°C° 0 mm 7 mps 711 mmHg 56%
    20:00 +10°C° 0 mm 6 mps 711 mmHg 59%
    21:00 +10°C° 0 mm 5 mps 712 mmHg 62%
    22:00 +10°C° 0 mm 4 mps 712 mmHg 65%
    23:00 +9°C° 0 mm 3 mps 712 mmHg 68%

    23 January, Thursday

    Time Temperature Precipitation Wind Pressure Humidity
    00:00 +9°C° 0 mm 2 mps 712 mmHg 70%
    01:00 +8°C° 0 mm 2 mps 712 mmHg 71%
    02:00 +9°C° 0 mm 1 mps 711 mmHg 71%
    03:00 +9°C° 0 mm 1 mps 711 mmHg 71%
    04:00 +9°C° 0 mm 1 mps 711 mmHg 71%
    05:00 +8°C° 0 mm 1 mps 711 mmHg 72%
    06:00 +8°C° 0 mm 1 mps 711 mmHg 72%
    07:00 +10°C° 0 mm 1 mps 711 mmHg 67%
    08:00 +12°C° 0 mm 1 mps 711 mmHg 61%
    09:00 +13°C° 0 mm 2 mps 712 mmHg 55%
    10:00 +15°C° 0 mm 2 mps 712 mmHg 50%
    11:00 +16°C° 0 mm 2 mps 712 mmHg 45%
    12:00 +18°C° 0 mm 2 mps 712 mmHg 40%
    13:00 +18°C° 0 mm 2 mps 711 mmHg 40%
    14:00 +19°C° 0 mm 2 mps 711 mmHg 39%
    15:00 +20°C° 0 mm 1 mps 711 mmHg 39%
    16:00 +16°C° 0 mm 1 mps 711 mmHg 47%
    17:00 +14°C° 0 mm 1 mps 710 mmHg 55%
    18:00 +12°C° 0 mm 1 mps 710 mmHg 63%
    19:00 +11°C° 0 mm 1 mps 710 mmHg 64%
    20:00 +11°C° 0 mm 1 mps 711 mmHg 64%
    21:00 +10°C° 0 mm 1 mps 711 mmHg 64%
    22:00 +10°C° 0 mm 1 mps 711 mmHg 64%
    23:00 +9°C° 0 mm 2 mps 711 mmHg 64%

    24 January, Friday

    Time Temperature Precipitation Wind Pressure Humidity
    00:00 +8°C° 0 mm 2 mps 711 mmHg 64%
    01:00 +8°C° 0 mm 2 mps 711 mmHg 65%
    02:00 +8°C° 0 mm 2 mps 711 mmHg 65%
    03:00 +8°C° 0 mm 1 mps 711 mmHg 66%
    04:00 +7°C° 0 mm 2 mps 712 mmHg 65%
    05:00 +7°C° 0 mm 2 mps 712 mmHg 64%
    06:00 +7°C° 0 mm 2 mps 712 mmHg 64%
    07:00 +8°C° 0 mm 2 mps 713 mmHg 59%
    08:00 +10°C° 0 mm 2 mps 713 mmHg 54%
    09:00 +13°C° 0 mm 2 mps 714 mmHg 49%
    10:00 +14°C° 0 mm 2 mps 714 mmHg 44%
    11:00 +16°C° 0 mm 3 mps 714 mmHg 40%
    12:00 +17°C° 0 mm 4 mps 714 mmHg 35%
    13:00 +17°C° 0 mm 3 mps 714 mmHg 36%
    14:00 +17°C° 0 mm 2 mps 714 mmHg 37%
    15:00 +17°C° 0 mm 2 mps 713 mmHg 37%
    16:00 +15°C° 0 mm 1 mps 713 mmHg 43%
    17:00 +13°C° 0 mm 1 mps 713 mmHg 48%
    18:00 +11°C° 0 mm 1 mps 712 mmHg 54%
    19:00 +11°C° 0 mm 1 mps 713 mmHg 55%
    20:00 +11°C° 0 mm 1 mps 713 mmHg 57%
    21:00 +9°C° 0 mm 0 mps 713 mmHg 58%
    22:00 +9°C° 0 mm 0 mps 713 mmHg 58%
    23:00 +9°C° 0 mm 0 mps 712 mmHg 58%

    25 January, Saturday

    Time Temperature Precipitation Wind Pressure Humidity
    00:00 +9°C° 0 mm 0 mps 712 mmHg 58%
    01:00 +9°C° 0 mm 0 mps 712 mmHg 57%
    02:00 +9°C° 0 mm 0 mps 712 mmHg 57%
    03:00 +8°C° 0 mm 0 mps 712 mmHg 56%
    04:00 +9°C° 0 mm 1 mps 712 mmHg 56%
    05:00 +9°C° 0 mm 1 mps 712 mmHg 55%
    06:00 +9°C° 0 mm 1 mps 712 mmHg 55%
    07:00 +11°C° 0 mm 1 mps 712 mmHg 52%
    08:00 +13°C° 0 mm 1 mps 713 mmHg 50%
    09:00 +14°C° 0 mm 1 mps 713 mmHg 48%
    10:00 +16°C° 0 mm 1 mps 713 mmHg 44%
    11:00 +17°C° 0 mm 2 mps 713 mmHg 41%
    12:00 +18°C° 0 mm 2 mps 713 mmHg 37%
    13:00 +18°C° 0 mm 2 mps 713 mmHg 40%
    14:00 +18°C° 0 mm 2 mps 713 mmHg 42%
    15:00 +19°C° 0 mm 1 mps 712 mmHg 44%
    16:00 +17°C° 0 mm 2 mps 712 mmHg 44%
    17:00 +16°C° 0 mm 2 mps 712 mmHg 43%
    18:00 +15°C° 0 mm 2 mps 713 mmHg 43%
    19:00 +14°C° 0 mm 2 mps 713 mmHg 50%
    20:00 +14°C° 0 mm 2 mps 713 mmHg 57%
    21:00 +12°C° 0 mm 3 mps 713 mmHg 64%
    22:00 +13°C° 0.4 mm 2 mps 712 mmHg 71%
    23:00 +12°C° 0.4 mm 1 mps 712 mmHg 78%
    Show more